Station History

Weather Underground - logo

Station Historical Data
Daily Summary for May 16, 2018 Units:  English    Metric   Both
« Previous Day
Next Day »
Daily Weekly Monthly Yearly Custom
  High: Low: Average:
Temperature: TemperatureF °F 53.4 °F 65.1 °F
Dew Point: DewpointF °F 48.4 °F 50 °F
Humidity: Humidity % 41 % 60 %
Wind Speed: WindSpeedMPH mph 0.0 mph 1.9 mph
Wind Gust: WindSpeedGustMPH mph - -
Wind:- - WNW
Pressure: PressureIn in 29.94 in -
Precipitation: 0.00 in    
Historical Graphs
 
 
Tabular Data for May 16, 2018
Time Temperature Dew Point Pressure Wind Wind Speed Wind Gust Humidity Rainfall Rate (Hourly)
TemperatureF °F DewpointF °F PressureIn in Calm     Humidity % HourlyPrecipIn in
00:00 61.5 °F 48.4 °F 29.95 in SE 1.2 mph 1.2 mph 62 % 0.00 in
03:24 57.1 °F 49.2 °F 29.98 in Calm     75 % 0.00 in
03:29 56.8 °F 49.0 °F 29.98 in Calm     75 % 0.00 in
03:34 56.7 °F 49.2 °F 29.99 in Calm     76 % 0.00 in
03:39 56.5 °F 49.0 °F 29.99 in Calm     76 % 0.00 in
03:44 56.2 °F 49.1 °F 29.99 in Calm     77 % 0.00 in
03:49 56.0 °F 49.6 °F 29.99 in Calm     79 % 0.00 in
03:55 55.6 °F 48.8 °F 29.99 in Calm     78 % 0.00 in
04:00 55.3 °F 48.6 °F 30.00 in Calm     78 % 0.00 in
04:05 55.0 °F 48.6 °F 30.00 in Calm     79 % 0.00 in
04:10 54.8 °F 48.7 °F 30.00 in Calm     80 % 0.00 in
04:15 54.7 °F 48.6 °F 30.00 in Calm     80 % 0.00 in
04:20 54.6 °F 48.6 °F 30.00 in Calm     80 % 0.00 in
04:25 54.5 °F 48.5 °F 30.01 in Calm     80 % 0.00 in
04:30 54.3 °F 48.6 °F 30.01 in SW 1.2 mph   81 % 0.00 in
04:35 53.9 °F 48.5 °F 30.01 in Calm     82 % 0.00 in
04:40 53.8 °F 48.8 °F 30.01 in Calm     83 % 0.00 in
04:45 53.8 °F 48.8 °F 30.00 in Calm     83 % 0.00 in
04:50 53.7 °F 48.7 °F 30.00 in Calm     83 % 0.00 in
04:55 53.7 °F 48.7 °F 30.01 in Calm     83 % 0.00 in
05:00 53.8 °F 49.1 °F 30.01 in Calm     84 % 0.00 in
05:05 53.7 °F 48.7 °F 30.00 in Calm     83 % 0.00 in
05:10 53.6 °F 48.6 °F 30.00 in Calm     83 % 0.00 in
05:15 53.6 °F 48.9 °F 30.00 in Calm     84 % 0.00 in
05:20 53.5 °F 48.8 °F 30.00 in Calm     84 % 0.00 in
05:25 53.4 °F 49.0 °F 30.01 in Calm     85 % 0.00 in
05:30 53.5 °F 49.1 °F 30.01 in Calm     85 % 0.00 in
05:35 53.4 °F 49.0 °F 30.01 in Calm     85 % 0.00 in
05:40 53.6 °F 49.2 °F 30.01 in Calm     85 % 0.00 in
05:45 53.7 °F 49.6 °F 30.01 in Calm     86 % 0.00 in
05:50 54.0 °F 49.9 °F 30.02 in Calm     86 % 0.00 in
05:55 54.1 °F 49.7 °F 30.02 in Calm     85 % 0.00 in
06:00 54.1 °F 49.4 °F 30.02 in Calm     84 % 0.00 in
06:05 54.0 °F 49.3 °F 30.02 in Calm     84 % 0.00 in
06:10 54.0 °F 49.3 °F 30.02 in Calm     84 % 0.00 in
06:15 54.1 °F 49.4 °F 30.02 in Calm     84 % 0.00 in
06:20 54.2 °F 49.5 °F 30.02 in Calm     84 % 0.00 in
06:21 54.2 °F 49.5 °F 30.02 in South 1.2 mph   84 % 0.00 in
06:26 54.4 °F 49.3 °F 30.03 in Calm     83 % 0.00 in
06:31 54.7 °F 49.3 °F 30.03 in Calm     82 % 0.00 in
06:36 54.9 °F 49.5 °F 30.03 in Calm     82 % 0.00 in
06:41 55.1 °F 49.4 °F 30.03 in Calm     81 % 0.00 in
06:44 55.2 °F 49.5 °F 30.03 in Calm     81 % 0.00 in
06:49 55.4 °F 49.7 °F 30.04 in Calm     81 % 0.00 in
06:54 55.6 °F 49.5 °F 30.04 in Calm     80 % 0.00 in
06:59 55.9 °F 49.8 °F 30.04 in Calm     80 % 0.00 in
07:04 56.1 °F 49.7 °F 30.04 in Calm     79 % 0.00 in
07:09 56.4 °F 50.0 °F 30.04 in Calm     79 % 0.00 in
07:14 56.7 °F 49.9 °F 30.04 in Calm     78 % 0.00 in
07:19 57.0 °F 50.2 °F 30.05 in Calm     78 % 0.00 in
07:24 57.3 °F 51.2 °F 30.05 in Calm     80 % 0.00 in
07:29 57.7 °F 51.6 °F 30.05 in Calm     80 % 0.00 in
07:34 57.9 °F 51.1 °F 30.05 in Calm     78 % 0.00 in
07:39 58.1 °F 51.3 °F 30.05 in Calm     78 % 0.00 in
07:44 58.3 °F 51.5 °F 30.05 in Calm     78 % 0.00 in
07:49 58.4 °F 51.2 °F 30.05 in South 1.2 mph   77 % 0.00 in
07:54 58.4 °F 50.9 °F 30.05 in Calm     76 % 0.00 in
08:00 58.7 °F 51.2 °F 30.05 in Calm     76 % 0.00 in
08:05 59.0 °F 51.4 °F 30.05 in Calm     76 % 0.00 in
08:10 59.3 °F 51.0 °F 30.05 in Calm     74 % 0.00 in
08:15 59.5 °F 50.8 °F 30.05 in Calm     73 % 0.00 in
08:20 59.9 °F 50.8 °F 30.05 in Calm     72 % 0.00 in
08:25 60.0 °F 50.6 °F 30.05 in Calm     71 % 0.00 in
08:30 60.4 °F 50.6 °F 30.05 in Calm     70 % 0.00 in
08:35 60.8 °F 50.6 °F 30.06 in South 1.2 mph   69 % 0.00 in
08:40 60.8 °F 51.0 °F 30.06 in Calm     70 % 0.00 in
08:45 60.9 °F 51.0 °F 30.06 in Calm     70 % 0.00 in
08:50 60.9 °F 51.4 °F 30.06 in Calm     71 % 0.00 in
08:55 60.9 °F 51.0 °F 30.06 in Calm     70 % 0.00 in
09:00 60.9 °F 51.4 °F 30.06 in SSE 1.0 mph 1.0 mph 71 % 0.00 in
09:05 61.0 °F 51.5 °F 30.06 in Calm     71 % 0.00 in
09:10 60.9 °F 51.0 °F 30.06 in Calm     70 % 0.00 in
09:15 61.2 °F 51.3 °F 30.06 in Calm     70 % 0.00 in
09:20 61.4 °F 51.1 °F 30.06 in Calm     69 % 0.00 in
09:25 61.6 °F 51.3 °F 30.06 in Calm     69 % 0.00 in
09:30 62.0 °F 51.7 °F 30.05 in Calm     69 % 0.00 in
09:35 62.1 °F 51.0 °F 30.06 in Calm     67 % 0.00 in
09:40 62.5 °F 51.8 °F 30.06 in Calm     68 % 0.00 in
09:45 63.1 °F 51.6 °F 30.06 in WNW 1.2 mph 1.2 mph 66 % 0.00 in
09:50 64.0 °F 52.4 °F 30.05 in Calm     66 % 0.00 in
09:55 64.7 °F 52.2 °F 30.05 in NNW 2.3 mph 2.3 mph 64 % 0.00 in
10:00 64.5 °F 51.6 °F 30.05 in West 1.2 mph   63 % 0.00 in
10:05 64.5 °F 51.6 °F 30.05 in NW 3.5 mph 3.5 mph 63 % 0.00 in
10:10 64.7 °F 51.8 °F 30.05 in NW 2.3 mph 2.3 mph 63 % 0.00 in
10:15 65.1 °F 52.2 °F 30.05 in Calm     63 % 0.00 in
10:20 65.5 °F 51.7 °F 30.05 in WSW 1.2 mph 1.2 mph 61 % 0.00 in
10:25 66.6 °F 52.7 °F 30.05 in NW 3.5 mph 3.5 mph 61 % 0.00 in
10:30 66.8 °F 52.0 °F 30.05 in NW 1.2 mph 1.2 mph 59 % 0.00 in
10:35 66.9 °F 53.0 °F 30.05 in NNW 2.3 mph 2.3 mph 61 % 0.00 in
10:41 67.2 °F 51.9 °F 30.05 in West 2.3 mph 2.3 mph 58 % 0.00 in
10:46 67.5 °F 52.7 °F 30.05 in East 3.5 mph 3.5 mph 59 % 0.00 in
10:51 67.9 °F 51.6 °F 30.05 in NNW 2.3 mph 2.3 mph 56 % 0.00 in
10:56 68.0 °F 52.2 °F 30.05 in NW 4.6 mph 4.6 mph 57 % 0.00 in
11:01 67.9 °F 51.6 °F 30.05 in NW 1.2 mph 1.2 mph 56 % 0.00 in
11:06 67.9 °F 51.6 °F 30.05 in WNW 2.3 mph 2.3 mph 56 % 0.00 in
11:11 68.2 °F 50.4 °F 30.05 in WNW 3.5 mph 3.5 mph 53 % 0.00 in
11:16 67.9 °F 51.1 °F 30.05 in NW 3.5 mph 3.5 mph 55 % 0.00 in
11:21 67.9 °F 51.1 °F 30.05 in NW 3.5 mph 3.5 mph 55 % 0.00 in
11:26 67.8 °F 51.5 °F 30.05 in NW 3.5 mph 3.5 mph 56 % 0.00 in
11:31 68.0 °F 50.7 °F 30.05 in NE 4.6 mph 4.6 mph 54 % 0.00 in
11:36 67.8 °F 50.0 °F 30.04 in NNW 3.5 mph 3.5 mph 53 % 0.00 in
11:41 68.0 °F 49.7 °F 30.05 in NW 3.5 mph 3.5 mph 52 % 0.00 in
11:46 68.4 °F 50.1 °F 30.05 in NW 2.3 mph   52 % 0.00 in
11:51 68.4 °F 49.0 °F 30.04 in North 3.0 mph 3.0 mph 50 % 0.00 in
11:56 68.8 °F 49.4 °F 30.04 in NW 8.1 mph 8.1 mph 50 % 0.00 in
12:01 68.9 °F 48.9 °F 30.04 in WNW 4.0 mph 4.0 mph 49 % 0.00 in
12:06 69.2 °F 48.7 °F 30.04 in WNW 3.5 mph 3.5 mph 48 % 0.00 in
12:07 69.1 °F 49.1 °F 30.03 in NNW 3.5 mph 3.5 mph 49 % 0.00 in
12:12 69.6 °F 50.1 °F 30.03 in NW 3.5 mph 3.5 mph 50 % 0.00 in
12:29 69.8 °F 49.2 °F 30.03 in NNW 4.0 mph 4.0 mph 48 % 0.00 in
12:34 70.1 °F 50.0 °F 30.03 in NW 6.9 mph 6.9 mph 49 % 0.00 in
12:40 70.5 °F 49.3 °F 30.03 in NW 5.8 mph 5.8 mph 47 % 0.00 in
12:45 70.4 °F 49.2 °F 30.03 in NW 4.6 mph 4.6 mph 47 % 0.00 in
12:50 70.1 °F 50.0 °F 30.03 in NW 4.6 mph 4.6 mph 49 % 0.00 in
12:55 70.4 °F 49.2 °F 30.02 in WNW 2.3 mph 2.3 mph 47 % 0.00 in
13:00 71.2 °F 49.4 °F 30.02 in NW 5.0 mph 5.0 mph 46 % 0.00 in
13:05 71.3 °F 50.0 °F 30.02 in NW 4.6 mph 4.6 mph 47 % 0.00 in
13:10 70.9 °F 49.7 °F 30.02 in NW 4.6 mph 4.6 mph 47 % 0.00 in
13:15 71.0 °F 50.3 °F 30.02 in WSW 3.5 mph 3.5 mph 48 % 0.00 in
13:20 71.6 °F 50.9 °F 30.02 in WNW 4.6 mph 4.6 mph 48 % 0.00 in
13:25 71.5 °F 50.2 °F 30.02 in NW 3.5 mph 3.5 mph 47 % 0.00 in
13:30 71.8 °F 50.5 °F 30.02 in WNW 4.6 mph 4.6 mph 47 % 0.00 in
13:35 71.4 °F 50.7 °F 30.02 in WNW 3.5 mph 3.5 mph 48 % 0.00 in
13:40 71.8 °F 51.0 °F 30.01 in NW 4.0 mph 4.0 mph 48 % 0.00 in
13:45 72.6 °F 51.8 °F 30.01 in NW 3.5 mph 3.5 mph 48 % 0.00 in
13:50 72.7 °F 50.1 °F 30.01 in NW 3.5 mph 3.5 mph 45 % 0.00 in
13:55 72.7 °F 50.7 °F 30.01 in WNW 3.5 mph 3.5 mph 46 % 0.00 in
14:00 73.1 °F 50.5 °F 30.01 in North 3.5 mph 3.5 mph 45 % 0.00 in
14:05 73.1 °F 50.5 °F 30.01 in NW 8.1 mph 8.1 mph 45 % 0.00 in
14:10 72.3 °F 50.4 °F 30.01 in NNE 6.0 mph 6.0 mph 46 % 0.00 in
14:15 72.8 °F 50.8 °F 30.01 in NW 4.0 mph 4.0 mph 46 % 0.00 in
14:20 72.5 °F 50.5 °F 30.01 in NW 5.0 mph 5.0 mph 46 % 0.00 in
14:25 73.0 °F 52.1 °F 30.00 in SSE 3.5 mph 3.5 mph 48 % 0.00 in
14:30 73.6 °F 50.9 °F 30.00 in North 3.5 mph 3.5 mph 45 % 0.00 in
14:35 73.9 °F 50.6 °F 30.00 in ENE 3.5 mph 3.5 mph 44 % 0.00 in
14:40 74.0 °F 50.7 °F 30.00 in NW 3.5 mph 3.5 mph 44 % 0.00 in
14:45 73.6 °F 50.9 °F 30.00 in West 4.6 mph 4.6 mph 45 % 0.00 in
14:50 73.6 °F 50.9 °F 30.00 in NW 5.8 mph 5.8 mph 45 % 0.00 in
14:55 74.1 °F 50.8 °F 30.00 in West 2.3 mph 2.3 mph 44 % 0.00 in
15:01 74.4 °F 51.1 °F 30.00 in NNW 3.5 mph 3.5 mph 44 % 0.00 in
15:06 74.5 °F 51.8 °F 29.99 in NNW 3.5 mph 3.5 mph 45 % 0.00 in
15:11 74.9 °F 52.1 °F 29.99 in WSW 3.5 mph 3.5 mph 45 % 0.00 in
15:16 74.7 °F 50.1 °F 29.99 in NNE 5.8 mph 5.8 mph 42 % 0.00 in
15:21 74.3 °F 51.0 °F 29.99 in WNW 5.0 mph 5.0 mph 44 % 0.00 in
15:26 74.4 °F 51.1 °F 29.99 in NW 3.5 mph 3.5 mph 44 % 0.00 in
15:31 74.8 °F 50.8 °F 29.99 in NW 5.0 mph 5.0 mph 43 % 0.00 in
15:36 75.1 °F 51.1 °F 29.98 in NW 4.0 mph 4.0 mph 43 % 0.00 in
15:41 74.9 °F 51.5 °F 29.98 in NW 8.0 mph 8.0 mph 44 % 0.00 in
15:46 74.9 °F 50.9 °F 29.98 in NW 3.5 mph 3.5 mph 43 % 0.00 in
15:51 75.1 °F 51.7 °F 29.98 in WSW 3.5 mph 3.5 mph 44 % 0.00 in
16:00 75.5 °F 50.8 °F 29.98 in NW 6.0 mph 6.0 mph 42 % 0.00 in
16:04 73.7 °F 50.4 °F 29.97 in North 3.5 mph 3.5 mph 44 % 0.00 in
16:10 74.4 °F 51.1 °F 29.97 in NW 5.8 mph 5.8 mph 44 % 0.00 in
16:15 75.2 °F 51.8 °F 29.97 in WNW 3.5 mph 3.5 mph 44 % 0.00 in
16:20 74.9 °F 50.3 °F 29.97 in WSW 3.5 mph 3.5 mph 42 % 0.00 in
16:25 74.9 °F 50.9 °F 29.97 in NW 4.6 mph 4.6 mph 43 % 0.00 in
16:30 75.0 °F 51.0 °F 29.97 in NNW 3.5 mph 3.5 mph 43 % 0.00 in
16:35 75.2 °F 50.5 °F 29.96 in WNW 5.8 mph 5.8 mph 42 % 0.00 in
16:40 75.3 °F 51.3 °F 29.96 in West 5.8 mph 5.8 mph 43 % 0.00 in
16:45 75.0 °F 50.3 °F 29.96 in NW 6.9 mph 6.9 mph 42 % 0.00 in
16:50 74.7 °F 50.7 °F 29.96 in NNE 5.8 mph 5.8 mph 43 % 0.00 in
16:55 75.0 °F 51.0 °F 29.96 in NW 4.6 mph 4.6 mph 43 % 0.00 in
17:00 74.8 °F 49.5 °F 29.96 in NW 5.8 mph 5.8 mph 41 % 0.00 in
17:05 74.9 °F 50.9 °F 29.96 in NW 4.6 mph 4.6 mph 43 % 0.00 in
17:10 74.7 °F 50.1 °F 29.96 in WNW 4.0 mph 4.0 mph 42 % 0.00 in
17:15 74.9 °F 50.9 °F 29.96 in NW 3.5 mph 3.5 mph 43 % 0.00 in
17:20 75.0 °F 50.3 °F 29.96 in NW 3.0 mph 3.0 mph 42 % 0.00 in
17:25 75.2 °F 50.5 °F 29.95 in NW 3.5 mph 3.5 mph 42 % 0.00 in
17:30 75.3 °F 50.6 °F 29.95 in NW 5.8 mph 5.8 mph 42 % 0.00 in
17:35 74.9 °F 50.3 °F 29.95 in WSW 3.5 mph 3.5 mph 42 % 0.00 in
17:40 75.0 °F 50.3 °F 29.95 in NW 4.6 mph 4.6 mph 42 % 0.00 in
17:45 74.9 °F 50.3 °F 29.95 in NW 8.1 mph 8.1 mph 42 % 0.00 in
17:50 74.5 °F 50.5 °F 29.95 in NW 5.8 mph 5.8 mph 43 % 0.00 in
17:55 74.7 °F 50.1 °F 29.95 in NW 4.6 mph 4.6 mph 42 % 0.00 in
18:00 74.7 °F 50.1 °F 29.94 in WNW 3.5 mph 3.5 mph 42 % 0.00 in
18:05 74.5 °F 50.5 °F 29.95 in NW 4.6 mph 4.6 mph 43 % 0.00 in
18:10 74.4 °F 49.8 °F 29.94 in NNW 4.6 mph 4.6 mph 42 % 0.00 in
18:15 74.1 °F 50.2 °F 29.95 in North 5.0 mph 5.0 mph 43 % 0.00 in
18:20 73.9 °F 50.0 °F 29.95 in NW 3.5 mph 3.5 mph 43 % 0.00 in
18:25 73.6 °F 49.7 °F 29.94 in NW 3.5 mph 3.5 mph 43 % 0.00 in
18:31 73.6 °F 50.3 °F 29.94 in NW 3.5 mph 3.5 mph 44 % 0.00 in
18:36 73.8 °F 49.9 °F 29.94 in NW 3.5 mph 3.5 mph 43 % 0.00 in
18:41 73.7 °F 49.8 °F 29.94 in WNW 2.3 mph 2.3 mph 43 % 0.00 in
18:46 73.5 °F 50.2 °F 29.94 in NW 2.3 mph 2.3 mph 44 % 0.00 in
18:51 73.2 °F 50.6 °F 29.94 in WNW 2.3 mph 2.3 mph 45 % 0.00 in
18:56 72.8 °F 50.2 °F 29.94 in NW 2.3 mph 2.3 mph 45 % 0.00 in
18:57 72.7 °F 50.7 °F 29.94 in NW 1.2 mph 1.2 mph 46 % 0.00 in
19:02 72.4 °F 50.4 °F 29.94 in NW 3.5 mph 3.5 mph 46 % 0.00 in
19:08 72.0 °F 49.5 °F 29.94 in NW 2.3 mph 2.3 mph 45 % 0.00 in
19:13 71.7 °F 49.8 °F 29.94 in WNW 3.5 mph 3.5 mph 46 % 0.00 in
19:18 71.4 °F 50.1 °F 29.95 in WNW 1.2 mph 1.2 mph 47 % 0.00 in
19:23 71.2 °F 50.5 °F 29.95 in NW 1.2 mph 1.2 mph 48 % 0.00 in
19:28 70.9 °F 50.2 °F 29.95 in NW 1.2 mph 1.2 mph 48 % 0.00 in
19:33 70.5 °F 50.4 °F 29.95 in Calm     49 % 0.00 in
19:38 70.2 °F 50.7 °F 29.95 in NW 1.2 mph   50 % 0.00 in
19:43 69.8 °F 50.3 °F 29.95 in West 1.2 mph 1.2 mph 50 % 0.00 in
19:48 69.4 °F 50.5 °F 29.95 in WNW 1.2 mph 1.2 mph 51 % 0.00 in
19:53 68.8 °F 50.5 °F 29.95 in Calm     52 % 0.00 in
19:58 68.3 °F 50.5 °F 29.95 in Calm     53 % 0.00 in
20:03 67.8 °F 50.5 °F 29.95 in Calm     54 % 0.00 in
20:08 67.3 °F 50.1 °F 29.95 in Calm     54 % 0.00 in
20:13 66.9 °F 50.2 °F 29.95 in WNW 1.2 mph 1.2 mph 55 % 0.00 in
20:18 66.6 °F 50.4 °F 29.96 in WNW 1.2 mph 1.2 mph 56 % 0.00 in
20:23 66.3 °F 50.1 °F 29.95 in WNW 1.2 mph 1.2 mph 56 % 0.00 in
20:28 66.1 °F 49.9 °F 29.96 in Calm     56 % 0.00 in
20:33 65.9 °F 50.2 °F 29.96 in Calm     57 % 0.00 in
20:38 65.8 °F 50.1 °F 29.96 in Calm     57 % 0.00 in
20:43 65.6 °F 50.9 °F 29.96 in Calm     59 % 0.00 in
20:48 65.3 °F 50.1 °F 29.96 in Calm     58 % 0.00 in
20:53 65.2 °F 50.5 °F 29.96 in Calm     59 % 0.00 in
20:58 65.0 °F 50.3 °F 29.96 in Calm     59 % 0.00 in
21:03 64.8 °F 50.6 °F 29.96 in Calm     60 % 0.00 in
21:08 64.8 °F 50.1 °F 29.96 in Calm     59 % 0.00 in
21:13 64.9 °F 50.2 °F 29.96 in Calm     59 % 0.00 in
21:18 64.7 °F 50.0 °F 29.96 in WNW 1.2 mph 1.2 mph 59 % 0.00 in
21:23 64.5 °F 50.3 °F 29.97 in Calm     60 % 0.00 in
21:28 64.2 °F 50.0 °F 29.97 in Calm     60 % 0.00 in
21:34 64.0 °F 49.8 °F 29.97 in West 1.2 mph   60 % 0.00 in
21:39 63.7 °F 50.0 °F 29.97 in Calm     61 % 0.00 in
21:44 63.4 °F 49.7 °F 29.97 in Calm     61 % 0.00 in
21:49 63.4 °F 50.1 °F 29.98 in Calm     62 % 0.00 in
21:54 63.4 °F 49.7 °F 29.98 in WNW 1.0 mph   61 % 0.00 in
21:59 63.4 °F 49.7 °F 29.98 in NW 2.3 mph 2.3 mph 61 % 0.00 in
22:04 63.4 °F 49.7 °F 29.98 in WNW 2.3 mph 2.3 mph 61 % 0.00 in
22:09 63.3 °F 49.6 °F 29.98 in NW 1.2 mph 1.2 mph 61 % 0.00 in
22:14 63.2 °F 49.5 °F 29.98 in NW 1.2 mph   61 % 0.00 in
22:19 63.0 °F 49.3 °F 29.98 in WNW 3.5 mph 3.5 mph 61 % 0.00 in
22:24 62.9 °F 49.7 °F 29.98 in NW 1.2 mph 1.2 mph 62 % 0.00 in
22:29 62.7 °F 49.5 °F 29.98 in WNW 2.3 mph 2.3 mph 62 % 0.00 in
22:34 62.5 °F 49.3 °F 29.98 in NW 2.3 mph 2.3 mph 62 % 0.00 in
22:39 62.3 °F 49.5 °F 29.99 in NW 2.3 mph 2.3 mph 63 % 0.00 in
22:44 62.1 °F 49.4 °F 29.99 in NW 1.2 mph 1.2 mph 63 % 0.00 in
22:49 62.0 °F 49.7 °F 29.99 in NW 1.2 mph   64 % 0.00 in
22:54 62.0 °F 49.7 °F 29.99 in Calm     64 % 0.00 in
22:55 62.0 °F 49.7 °F 29.99 in NW 1.2 mph 1.2 mph 64 % 0.00 in
23:00 61.9 °F 49.6 °F 29.99 in Calm     64 % 0.00 in
23:05 61.8 °F 49.5 °F 29.99 in NW 1.2 mph 1.2 mph 64 % 0.00 in
23:10 61.8 °F 49.5 °F 29.98 in Calm     64 % 0.00 in
23:15 61.7 °F 49.4 °F 29.98 in Calm     64 % 0.00 in
23:20 61.7 °F 49.4 °F 29.98 in North 2.3 mph 2.3 mph 64 % 0.00 in
23:25 61.7 °F 49.4 °F 29.98 in NW 1.2 mph 1.2 mph 64 % 0.00 in
23:30 61.6 °F 49.3 °F 29.98 in Calm     64 % 0.00 in
23:35 61.4 °F 49.9 °F 29.98 in Calm     66 % 0.00 in
23:40 61.2 °F 49.3 °F 29.98 in Calm     65 % 0.00 in
23:45 60.7 °F 49.7 °F 29.98 in Calm     67 % 0.00 in
23:50 60.3 °F 49.3 °F 29.98 in Calm     67 % 0.00 in
23:55 60.1 °F 49.5 °F 29.98 in Calm     68 % 0.00 in
Park Place, Exeter, Tulare County, California, USA
Compliments of Weather Underground - 2.5 mb